LiveATC.Net - Listen to live air traffic control over the Internet!


ICAO: ENJB  IATA:   Airport: Jarlsberg Airfield
City: Tonsberg
Country: Norway   Continent: Europe
ENTO METAR Weather: ENTO 061050Z 25009KT 200V290 CAVOK 19/05 Q1013 NOSIG
ENJB Flight Activity (FlightAware)
ENJB Webcam:  (Airport Webcams) 

ENJB CTAF
Feed Status: UP   Listeners: 0
Listen in your browser - HTML5 player (in browser, HTML5)
Click here to listen with your own player (launches your MP3 player)
Archive Access: ENJB CTAF
FacilityFrequency
Jarlsberg CTAF122.300

NOTICE

Unauthorized use prohibited. See LiveATC.net Terms of Service


Airport/ARTCC Code
Frequency Search
(e.g., 124.400, 128.75)
Site-wide search
 


Browse Feeds
Top 50 Feeds
HF Oceanic Feeds
Coverage Map
Bad Weather Areas

LiveATC FAQ
Offer LiveATC feed
Contact LiveATC.net
Press Inquiries

LiveATC on iPhone
LiveATC on Android

LiveATC Mobile
(Mobile browser)

ATC Audio Archives
Interesting Recordings

LiveATC Forums


Home Page
About LiveATC.net


Terms of Use
Privacy Policy

AIRMETs/SIGMETs

FAA Airport Status
NAS Status
Arrival Demand


Server Software By:
Icecast.org
Liquidsoap